Edwards AFB North Base, CA

7:11 AM PDT on September 18, 2019 (GMT -0700)
Edwards AFB North Base

Weather History for K9L2 - August, 2019

Change the Weather History Date:

Tuesday, August 20, 2019

  Actual Average (KEDW) Record (KEDW)
Temperature  
Mean Temperature 82 °F -  
Max Temperature 102 °F 96 °F 105 °F (2015)
Min Temperature 62 °F 63 °F 55 °F (1998)
Cooling Degree Days 16    
Growing Degree Days 32 (Base 50)    
Moisture  
Dew Point 36 °F    
Average Humidity 22    
Maximum Humidity 48    
Minimum Humidity 7    
Precipitation  
Precipitation 0.00 in - - ()
Sea Level Pressure  
Sea Level Pressure 29.85 in    
Wind  
Wind Speed 7 mph ()    
Max Wind Speed 20 mph    
Max Gust Speed 26 mph    
Visibility 7.8 miles    
Events      
Averages and records for this station are not official NWS values.
T = Trace of Precipitation, MM = Missing Value Source: Averaged Metar Reports

Daily Weather History Graph

Daily Weather History Graph

Search for Another Location

Airport or City:

Astronomy

Aug. 20, 2019 Rise Set
Actual Time 6:15 AM PDT 7:33 PM PDT
Civil Twilight 5:48 AM PDT 8:00 PM PDT
Nautical Twilight 5:16 AM PDT 8:31 PM PDT
Astronomical Twilight 4:43 AM PDT 9:04 PM PDT
Moon 10:35 PM PDT (8/20) 10:47 AM PDT (8/20)
Length of Visible Light 14h 11m
Length of Day
13h 18m
Waning Gibbous, 77% of the Moon is Illuminated
Aug 20
Waning Gibbous
Aug 23
Last Quarter
Aug 30
New
Sep 5
First Quarter
Sep 13
Full

Hourly Weather History & Observations

Time (PDT) Temp. Dew Point Humidity Pressure Visibility Wind Dir Wind Speed Gust Speed Precip Events Conditions
12:58 AM 73.2 °F 44.2 °F 35% 29.86 in 10.0 mi WSW 5.8 mph - N/A   Clear
1:58 AM 70.7 °F 43.2 °F 37% 29.86 in 9.0 mi South 6.9 mph - N/A   Clear
2:58 AM 67.5 °F 42.6 °F 41% 29.87 in 10.0 mi South 3.5 mph - N/A   Clear
3:58 AM 65.7 °F 43.0 °F 44% 29.87 in 10.0 mi SSE 5.8 mph - N/A   Clear
4:58 AM 63.7 °F 42.8 °F 47% 29.88 in 10.0 mi Calm Calm - N/A   Clear
5:58 AM 62.4 °F 42.4 °F 48% 29.89 in 10.0 mi South 3.5 mph - N/A   Clear
6:58 AM 63.1 °F 41.7 °F 46% 29.92 in 10.0 mi Calm Calm - N/A   Clear
7:58 AM 68.4 °F 39.0 °F 34% 29.92 in 9.0 mi SE 5.8 mph - N/A   Clear
8:58 AM 74.5 °F 43.3 °F 33% 29.91 in 9.0 mi Calm Calm - N/A   Clear
9:58 AM 86.4 °F 39.0 °F 19% 29.91 in 7.0 mi SW 6.9 mph - N/A   Clear
10:58 AM 91.2 °F 33.4 °F 13% 29.90 in 8.0 mi SW 6.9 mph - N/A   Clear
11:58 AM 94.6 °F 27.1 °F 9% 29.88 in 7.0 mi SSW 4.6 mph - N/A   Clear
12:13 PM 95.0 °F 28.4 °F 9% 29.88 in 6.0 mi South 5.8 mph - N/A   Haze
12:28 PM 96.8 °F 26.6 °F 8% 29.87 in 7.0 mi South 9.2 mph - N/A   Clear
12:58 PM 96.3 °F 25.5 °F 8% 29.86 in 7.0 mi SW 9.2 mph - N/A   Clear
1:43 PM 98.6 °F 28.4 °F 8% 29.84 in 6.0 mi South 5.8 mph - N/A   Haze
1:58 PM 99.7 °F 26.1 °F 7% 29.84 in 7.0 mi South 10.4 mph 16.1 mph N/A   Clear
2:28 PM 100.4 °F 24.8 °F 7% 29.83 in 7.0 mi South 10.4 mph - N/A   Clear
2:58 PM 100.8 °F 24.8 °F 7% 29.82 in 6.0 mi WSW 3.5 mph - N/A   Haze
3:58 PM 101.3 °F 25.9 °F 7% 29.80 in 6.0 mi SSW 15.0 mph 18.4 mph N/A   Haze
4:28 PM 100.4 °F 28.4 °F 8% 29.79 in 7.0 mi South 10.4 mph - N/A   Clear
4:58 PM 100.8 °F 31.6 °F 9% 29.79 in 6.0 mi SW 15.0 mph - N/A   Haze
5:13 PM 98.6 °F 33.8 °F 10% 29.80 in 7.0 mi SSW 16.1 mph 19.6 mph N/A   Clear
5:28 PM 98.6 °F 35.6 °F 11% 29.80 in 6.0 mi SSW 16.1 mph - N/A   Haze
5:58 PM 97.3 °F 37.0 °F 12% 29.80 in 6.0 mi SSW 19.6 mph 24.2 mph N/A   Haze
6:43 PM 93.2 °F 39.2 °F 15% 29.80 in 7.0 mi SW 18.4 mph 26.5 mph N/A   Clear
6:58 PM 92.8 °F 38.8 °F 15% 29.80 in 6.0 mi SW 18.4 mph 23.0 mph N/A   Haze
7:58 PM 87.4 °F 41.5 °F 20% 29.82 in 8.0 mi WSW 10.4 mph - N/A   Clear
8:58 PM 82.9 °F 46.6 °F 28% 29.83 in 8.0 mi WSW 17.3 mph - N/A   Clear
9:58 PM 80.1 °F 48.9 °F 34% 29.84 in 9.0 mi WSW 13.8 mph - N/A   Clear
10:58 PM 77.0 °F 48.0 °F 36% 29.85 in 10.0 mi South 8.1 mph - N/A   Clear
11:58 PM 73.4 °F 44.1 °F 35% 29.85 in 10.0 mi South 11.5 mph - N/A   Clear